Change the Weather History Date:

Thursday, January 30, 2014

  Actual Average (KDTW) Record (KDTW)
Temperature  
Mean Temperature 19 °F 26 °F  
Max Temperature 28 °F 32 °F 62 °F (2013)
Min Temperature 10 °F 19 °F -4 °F (1951)
Degree Days  
Heating Degree Days 46 39  
Month to date heating degree days 1187  
Since 1 July heating degree days 3484  
Cooling Degree Days 0 0  
Month to date cooling degree days 0  
Year to date cooling degree days 0  
Moisture  
Dew Point 9 °F    
Average Humidity 70    
Maximum Humidity 86    
Minimum Humidity 51    
Precipitation  
Precipitation 0.00 in 0.06 in 1.15 in (1916)
Month to date precipitation 1.90  
Year to date precipitation 1.90  
Snow  
Snow 0.00 in 0.40 in 7.30 in (1939)
Month to date snowfall 12.1  
Since 1 July snowfall 23.3  
Snow Depth -    
Sea Level Pressure  
Sea Level Pressure 30.00 in    
Wind  
Wind Speed 15 mph (SSW)    
Max Wind Speed 24 mph    
Max Gust Speed 34 mph    
Visibility 10 miles    
Events Snow    
T = Trace of Precipitation, MM = Missing Value Source: NWS Daily Summary

Daily Weather History Graph

Daily Weather History Graph

Search for Another Location

Airport or City:

Trip Planner

Search our weather history database for the weather conditions in past years. The results will help you decide how hot, cold, wet, or windy it might be!

Date:

Astronomy

Jan. 30, 2014 Rise Set
Actual Time 7:47 AM EST 5:44 PM EST
Civil Twilight 7:17 AM EST 6:14 PM EST
Nautical Twilight 6:44 AM EST 6:48 PM EST
Astronomical Twilight 6:11 AM EST 7:21 PM EST
Moon 7:11 AM EST (1/30) 5:56 PM EST (1/30)
Length of Visible Light 10h 56m
Length of Day
9h 57m
Waning Crescent, 0% of the Moon is Illuminated
Jan 30
Waning Crescent
Jan 30
New
Feb 6
First Quarter
Feb 14
Full
Feb 22
Last Quarter

Hourly Weather History & Observations

Time (EST) Temp. Windchill Dew Point Humidity Pressure Visibility Wind Dir Wind Speed Gust Speed Precip Events Conditions
12:15 AM 10.4 °F -5.4 °F 3.2 °F 73% 30.16 in 10.0 mi South 13.8 mph - N/A   Clear
12:34 AM 10.4 °F -5.4 °F 3.2 °F 73% 30.16 in 10.0 mi South 13.8 mph - N/A   Clear
12:54 AM 10.4 °F -4.8 °F 3.2 °F 73% 30.16 in 10.0 mi South 12.7 mph - N/A   Clear
1:15 AM 10.4 °F -4.1 °F 3.2 °F 73% 30.15 in 10.0 mi South 11.5 mph - N/A   Clear
1:34 AM 10.4 °F -4.1 °F 3.2 °F 73% 30.15 in 10.0 mi SSW 11.5 mph - N/A   Clear
1:54 AM 10.4 °F -5.4 °F 3.2 °F 73% 30.15 in 10.0 mi SSW 13.8 mph - N/A   Clear
2:14 AM 10.4 °F -6.0 °F 3.2 °F 73% 30.14 in 10.0 mi South 15.0 mph - N/A   Clear
2:34 AM 10.4 °F -5.4 °F 3.2 °F 73% 30.14 in 10.0 mi South 13.8 mph - N/A   Clear
2:54 AM 10.4 °F -5.4 °F 3.2 °F 73% 30.14 in 10.0 mi South 13.8 mph - N/A   Clear
3:14 AM 10.4 °F -4.8 °F 3.2 °F 73% 30.14 in 10.0 mi South 12.7 mph - N/A   Clear
3:34 AM 10.4 °F -5.4 °F 3.2 °F 73% 30.14 in 10.0 mi South 13.8 mph - N/A   Clear
3:54 AM 10.4 °F -5.4 °F 3.2 °F 73% 30.14 in 10.0 mi South 13.8 mph - N/A   Clear
4:14 AM 10.4 °F -4.1 °F 3.2 °F 73% 30.14 in 10.0 mi South 11.5 mph - N/A   Clear
4:34 AM 10.4 °F -4.8 °F 3.2 °F 73% 30.14 in 10.0 mi South 12.7 mph - N/A   Clear
4:55 AM 10.4 °F -4.8 °F 3.2 °F 73% 30.14 in 10.0 mi South 12.7 mph - N/A   Clear
5:14 AM 10.4 °F -4.8 °F 3.2 °F 73% 30.13 in 10.0 mi South 12.7 mph - N/A   Clear
5:34 AM 10.4 °F -5.4 °F 3.2 °F 73% 30.13 in 10.0 mi South 13.8 mph - N/A   Clear
5:55 AM 10.4 °F -6.0 °F 3.2 °F 73% 30.13 in 10.0 mi South 15.0 mph - N/A   Clear
6:14 AM 10.4 °F -6.6 °F 3.2 °F 73% 30.13 in 10.0 mi South 16.1 mph - N/A   Clear
6:34 AM 10.4 °F -6.0 °F 3.2 °F 73% 30.13 in 10.0 mi South 15.0 mph - N/A   Clear
6:55 AM 10.4 °F -6.6 °F 3.2 °F 73% 30.12 in 10.0 mi South 16.1 mph - N/A   Clear
7:14 AM 10.4 °F -7.2 °F 3.2 °F 73% 30.11 in 10.0 mi South 17.3 mph - N/A   Clear
7:34 AM 10.4 °F -7.2 °F 3.2 °F 73% 30.12 in 10.0 mi South 17.3 mph - N/A   Clear
7:54 AM 10.4 °F -7.2 °F 3.2 °F 73% 30.12 in 10.0 mi South 17.3 mph - N/A   Clear
8:14 AM 10.4 °F -6.6 °F 3.2 °F 73% 30.12 in 10.0 mi South 16.1 mph - N/A   Clear
8:34 AM 12.2 °F -4.3 °F 3.2 °F 67% 30.11 in 10.0 mi South 16.1 mph - N/A   Clear
8:54 AM 12.2 °F -4.8 °F 5.0 °F 73% 30.11 in 10.0 mi South 17.3 mph - N/A   Clear
9:14 AM 14.0 °F -3.0 °F 5.0 °F 67% 30.10 in 10.0 mi South 18.4 mph - N/A   Clear
9:35 AM 15.8 °F -0.2 °F 3.2 °F 58% 30.11 in 10.0 mi SSW 17.3 mph 23.0 mph N/A   Clear
9:54 AM 15.8 °F -1.1 °F 5.0 °F 62% 30.10 in 10.0 mi South 19.6 mph - N/A   Clear
10:14 AM 15.8 °F -1.9 °F 6.8 °F 68% 30.08 in 10.0 mi South 21.9 mph - N/A   Clear
10:35 AM 15.8 °F -2.3 °F 6.8 °F 68% 30.07 in 10.0 mi South 23.0 mph - N/A   Clear
10:54 AM 17.6 °F 1.7 °F 6.8 °F 63% 30.08 in 10.0 mi SSW 18.4 mph 26.5 mph N/A   Clear
11:14 AM 17.6 °F 1.3 °F 6.8 °F 63% 30.07 in 10.0 mi South 19.6 mph 26.5 mph N/A   Clear
11:35 AM 17.6 °F 0.1 °F 8.6 °F 68% 30.05 in 10.0 mi South 23.0 mph 26.5 mph N/A   Clear
11:54 AM 17.6 °F 0.5 °F 8.6 °F 68% 30.05 in 10.0 mi South 21.9 mph 26.5 mph N/A   Clear
12:14 PM 19.4 °F 2.8 °F 8.6 °F 63% 30.04 in 10.0 mi South 21.9 mph 27.6 mph N/A   Clear
12:35 PM 19.4 °F 2.1 °F 10.4 °F 68% 30.02 in 10.0 mi South 24.2 mph 28.8 mph N/A   Clear
12:54 PM 19.4 °F 2.5 °F 10.4 °F 68% 29.99 in 10.0 mi South 23.0 mph - N/A   Clear
1:14 PM 19.4 °F 4.1 °F 10.4 °F 68% 29.97 in 10.0 mi South 18.4 mph - N/A   Clear
1:34 PM 21.2 °F 6.0 °F 10.4 °F 63% 29.97 in 10.0 mi South 19.6 mph - N/A   Clear
1:54 PM 21.2 °F 5.6 °F 10.4 °F 63% 29.95 in 10.0 mi South 20.7 mph - N/A   Clear
2:14 PM 21.2 °F 5.6 °F 10.4 °F 63% 29.94 in 10.0 mi South 20.7 mph 25.3 mph N/A   Clear
2:34 PM 21.2 °F 5.6 °F 10.4 °F 63% 29.92 in 10.0 mi South 20.7 mph - N/A   Clear
2:54 PM 21.2 °F 6.4 °F 10.4 °F 63% 29.90 in 10.0 mi South 18.4 mph 24.2 mph N/A   Clear
3:15 PM 21.2 °F 6.4 °F 12.2 °F 68% 29.89 in 10.0 mi South 18.4 mph 23.0 mph N/A   Clear
3:34 PM 21.2 °F 6.4 °F 12.2 °F 68% 29.87 in 10.0 mi South 18.4 mph 24.2 mph N/A   Scattered Clouds
3:54 PM 21.2 °F 6.4 °F 12.2 °F 68% 29.84 in 10.0 mi South 18.4 mph 24.2 mph N/A   Scattered Clouds
4:15 PM 21.2 °F 5.6 °F 12.2 °F 68% 29.81 in 10.0 mi South 20.7 mph 28.8 mph N/A   Scattered Clouds
4:34 PM 21.2 °F 7.3 °F 12.2 °F 68% 29.82 in 10.0 mi South 16.1 mph 21.9 mph N/A   Scattered Clouds
4:54 PM 23.0 °F 8.7 °F 14.0 °F 68% 29.83 in 10.0 mi South 18.4 mph - N/A   Scattered Clouds
5:15 PM 23.0 °F 9.6 °F 14.0 °F 68% 29.82 in 10.0 mi South 16.1 mph - N/A   Scattered Clouds
5:34 PM 23.0 °F 9.2 °F 14.0 °F 68% 29.82 in 10.0 mi South 17.3 mph - N/A   Scattered Clouds
5:54 PM 24.8 °F 13.4 °F 12.2 °F 59% 29.84 in 10.0 mi SSW 12.7 mph - N/A   Overcast
6:15 PM 24.8 °F 11.5 °F 12.2 °F 59% 29.83 in 10.0 mi SSW 17.3 mph - N/A   Overcast
6:34 PM 24.8 °F 11.1 °F 12.2 °F 59% 29.82 in 10.0 mi SSW 18.4 mph - N/A   Overcast
6:54 PM 24.8 °F 11.9 °F 12.2 °F 59% 29.83 in 10.0 mi SSW 16.1 mph - N/A   Overcast
7:14 PM 26.6 °F 15.7 °F 10.4 °F 51% 29.84 in 10.0 mi SSW 12.7 mph - N/A   Overcast
7:34 PM 26.6 °F 16.8 °F 12.2 °F 55% 29.85 in 10.0 mi SW 10.4 mph - N/A   Overcast
7:54 PM 24.8 °F 11.9 °F 17.6 °F 74% 29.85 in 1.5 mi SW 16.1 mph 34.5 mph N/A Snow Light Snow
8:14 PM 24.8 °F 10.7 °F 19.4 °F 80% 29.85 in 1.0 mi SSW 19.6 mph 27.6 mph N/A Snow Light Snow
8:34 PM 24.8 °F 13.4 °F 19.4 °F 80% 29.84 in 1.8 mi SSW 12.7 mph 20.7 mph N/A Snow Light Snow
8:54 PM 24.8 °F 13.4 °F 19.4 °F 80% 29.85 in 10.0 mi SSW 12.7 mph 20.7 mph N/A   Overcast
9:14 PM 24.8 °F 12.9 °F 21.2 °F 86% 29.84 in 10.0 mi SSW 13.8 mph 23.0 mph N/A   Overcast
9:34 PM 26.6 °F 14.7 °F 21.2 °F 80% 29.84 in 10.0 mi SSW 15.0 mph 23.0 mph N/A   Overcast
9:54 PM 26.6 °F 15.2 °F 21.2 °F 80% 29.84 in 10.0 mi SSW 13.8 mph 19.6 mph N/A   Overcast
10:14 PM 26.6 °F 14.7 °F 21.2 °F 80% 29.84 in 10.0 mi SSW 15.0 mph 19.6 mph N/A   Overcast
10:34 PM 26.6 °F 15.7 °F 21.2 °F 80% 29.85 in 10.0 mi SSW 12.7 mph 20.7 mph N/A   Overcast
10:55 PM 26.6 °F 15.7 °F 21.2 °F 80% 29.84 in 10.0 mi SSW 12.7 mph 19.6 mph N/A   Overcast
11:14 PM 26.6 °F 16.8 °F 21.2 °F 80% 29.85 in 10.0 mi SW 10.4 mph 16.1 mph N/A   Overcast
11:34 PM 28.4 °F 21.2 °F 21.2 °F 74% 29.85 in 10.0 mi SW 6.9 mph - N/A   Overcast
11:55 PM 28.4 °F 18.5 °F 21.2 °F 74% 29.85 in 10.0 mi SW 11.5 mph 16.1 mph N/A   Overcast